AUA21M EDDH-LOWW

Flight info

Callsign AUA21M
Flight time N/A
Altitude 37000
Route AMLUH2G/33 AMLUH M852 DENIX DCT ZUCKA DCT OMELO DCT EVIKU DCT BITSI DCT MIKOV MIKOV8W
Aircraft A20N/M-SDE2E3FGHIRWXY/LB1

Departure

Time N/A
Airport Hamburg Helmut Schmidt Airport (EDDH)

Arrival

Time 2026-04-30 20:46
Airport Vienna International Airport (LOWW)
Time Latitude Longitude Altitude Speed Heading
2026-04-30 20:13 50.62624 14.30558 37421 ft 474 kts 131°
2026-04-30 20:13 50.57825 14.37421 37423 ft 474 kts 131°
2026-04-30 20:14 50.52938 14.44388 37452 ft 474 kts 131°
2026-04-30 20:14 50.48043 14.51345 37549 ft 474 kts 131°
2026-04-30 20:15 50.43054 14.58035 37214 ft 464 kts 132°
2026-04-30 20:15 50.40601 14.61311 37009 ft 461 kts 132°
2026-04-30 20:15 50.38172 14.64540 36996 ft 464 kts 132°
2026-04-30 20:16 50.33192 14.71049 36998 ft 465 kts 133°
2026-04-30 20:16 50.30686 14.74282 37117 ft 465 kts 133°
2026-04-30 20:16 50.28201 14.77478 37247 ft 466 kts 133°
2026-04-30 20:16 50.25686 14.80705 37382 ft 466 kts 133°
2026-04-30 20:17 50.23169 14.83929 37413 ft 466 kts 133°
2026-04-30 20:17 50.18138 14.90360 37415 ft 467 kts 133°
2026-04-30 20:18 50.13117 14.96762 37413 ft 467 kts 133°
2026-04-30 20:18 50.08069 15.03182 37406 ft 467 kts 133°
2026-04-30 20:19 50.03034 15.09566 37381 ft 467 kts 133°
2026-04-30 20:19 50.01359 15.11687 37233 ft 467 kts 133°
2026-04-30 20:19 49.98007 15.15921 36677 ft 466 kts 133°
2026-04-30 20:19 49.95495 15.19089 36293 ft 464 kts 133°
2026-04-30 20:20 49.92979 15.22258 35889 ft 465 kts 132°
2026-04-30 20:20 49.90459 15.25430 35469 ft 464 kts 132°
2026-04-30 20:20 49.87971 15.28555 35070 ft 463 kts 131°
2026-04-30 20:20 49.85463 15.31698 34666 ft 463 kts 131°
2026-04-30 20:21 49.82982 15.34802 34273 ft 461 kts 131°
2026-04-30 20:21 49.80479 15.37935 33818 ft 462 kts 131°
2026-04-30 20:21 49.77966 15.41080 33368 ft 462 kts 131°
2026-04-30 20:21 49.75467 15.44203 32931 ft 463 kts 131°
2026-04-30 20:22 49.72957 15.47333 32504 ft 464 kts 131°
2026-04-30 20:22 49.70432 15.50475 32104 ft 464 kts 131°
2026-04-30 20:22 49.67943 15.53565 31707 ft 464 kts 131°
2026-04-30 20:22 49.65420 15.56696 31291 ft 464 kts 131°
2026-04-30 20:23 49.62908 15.59808 30883 ft 460 kts 131°
2026-04-30 20:23 49.60416 15.62886 30488 ft 456 kts 131°
2026-04-30 20:23 49.57972 15.65901 30048 ft 446 kts 131°
2026-04-30 20:23 49.55570 15.68853 29602 ft 433 kts 130°
2026-04-30 20:24 49.53268 15.71684 29161 ft 422 kts 130°
2026-04-30 20:24 49.50979 15.74508 28760 ft 420 kts 130°
2026-04-30 20:24 49.48701 15.77331 28358 ft 422 kts 130°
2026-04-30 20:24 49.46428 15.80137 27963 ft 420 kts 130°
2026-04-30 20:25 49.41900 15.85690 27224 ft 413 kts 130°
2026-04-30 20:25 49.40409 15.87515 26963 ft 411 kts 130°
2026-04-30 20:26 49.35936 15.92992 26223 ft 409 kts 131°
2026-04-30 20:26 49.31511 15.98392 25510 ft 405 kts 131°
2026-04-30 20:26 49.29308 16.01076 25162 ft 403 kts 131°
2026-04-30 20:27 49.24925 16.06404 24491 ft 400 kts 132°
2026-04-30 20:27 49.20503 16.11513 23758 ft 406 kts 141°
2026-04-30 20:28 49.15194 16.14732 22794 ft 411 kts 153°
2026-04-30 20:28 49.09808 16.17511 21823 ft 405 kts 154°
2026-04-30 20:29 49.04513 16.20194 20837 ft 399 kts 154°
2026-04-30 20:30 48.96689 16.24152 19434 ft 389 kts 155°
2026-04-30 20:30 48.89080 16.27993 17985 ft 379 kts 155°
2026-04-30 20:31 48.81756 16.31670 16424 ft 362 kts 156°
2026-04-30 20:32 48.74846 16.35127 15041 ft 335 kts 156°
2026-04-30 20:32 48.70516 16.37293 14186 ft 319 kts 156°
2026-04-30 20:33 48.68449 16.38327 13734 ft 316 kts 156°
2026-04-30 20:33 48.64294 16.40407 12983 ft 311 kts 156°
2026-04-30 20:33 48.62267 16.41417 12607 ft 309 kts 157°
2026-04-30 20:34 48.58211 16.43435 11840 ft 305 kts 157°
2026-04-30 20:34 48.54211 16.45424 11085 ft 298 kts 158°
2026-04-30 20:35 48.52257 16.46395 10716 ft 299 kts 158°
2026-04-30 20:35 48.50282 16.47375 10350 ft 296 kts 158°
2026-04-30 20:35 48.46384 16.49303 9498 ft 294 kts 159°
2026-04-30 20:36 48.44451 16.50259 9211 ft 289 kts 159°
2026-04-30 20:36 48.42537 16.51204 8945 ft 292 kts 159°
2026-04-30 20:36 48.38707 16.53094 8420 ft 289 kts 159°
2026-04-30 20:37 48.36789 16.54039 8185 ft 288 kts 159°
2026-04-30 20:37 48.34888 16.54975 7929 ft 287 kts 159°
2026-04-30 20:37 48.32990 16.55907 7670 ft 286 kts 159°
2026-04-30 20:37 48.31134 16.56819 7425 ft 281 kts 159°
2026-04-30 20:38 48.29294 16.57722 7169 ft 273 kts 159°
2026-04-30 20:38 48.27509 16.58595 6914 ft 267 kts 160°
2026-04-30 20:38 48.25754 16.59454 6656 ft 261 kts 160°
2026-04-30 20:39 48.22384 16.61101 6129 ft 252 kts 159°
2026-04-30 20:39 48.20728 16.61910 6009 ft 250 kts 159°
2026-04-30 20:39 48.19078 16.62821 5985 ft 249 kts 147°
2026-04-30 20:40 48.17093 16.66762 5524 ft 241 kts 111°
2026-04-30 20:40 48.16370 16.69035 5074 ft 241 kts 110°
2026-04-30 20:40 48.15648 16.71292 4671 ft 239 kts 111°
2026-04-30 20:41 48.14206 16.75710 3903 ft 235 kts 111°
2026-04-30 20:41 48.13398 16.77838 3506 ft 238 kts 127°
2026-04-30 20:41 48.12026 16.79244 3137 ft 244 kts 159°
2026-04-30 20:41 48.10351 16.79404 2865 ft 242 kts 191°
2026-04-30 20:42 48.08826 16.78493 2699 ft 233 kts 205°
2026-04-30 20:42 48.07409 16.77479 2693 ft 222 kts 207°
2026-04-30 20:42 48.06023 16.73811 2698 ft 211 kts 281°
2026-04-30 20:43 48.06368 16.71784 2695 ft 192 kts 295°
2026-04-30 20:43 48.06863 16.70028 2536 ft 185 kts 300°
2026-04-30 20:43 48.07416 16.68312 2256 ft 176 kts 301°
2026-04-30 20:44 48.08374 16.65357 1809 ft 152 kts 302°
2026-04-30 20:44 48.08831 16.63950 1575 ft 145 kts 299°
2026-04-30 20:44 48.09629 16.61447 1198 ft 129 kts 300°
2026-04-30 20:45 48.10413 16.59078 877 ft 127 kts 298°
2026-04-30 20:45 48.10798 16.57892 721 ft 125 kts 298°
2026-04-30 20:45 48.11167 16.56757 635 ft 113 kts 297°
2026-04-30 20:46 48.11816 16.55154 615 ft 12 kts 332°
2026-04-30 20:46 48.11885 16.55194 607 ft 12 kts 93°
2026-04-30 20:47 48.11797 16.55467 613 ft 19 kts 115°
2026-04-30 20:47 48.11742 16.55638 621 ft 10 kts 116°
2026-04-30 20:48 48.11751 16.55808 616 ft 9 kts 58°
2026-04-30 20:48 48.11744 16.55912 623 ft 10 kts 113°
2026-04-30 20:48 48.11740 16.55974 612 ft 6 kts 51°
2026-04-30 20:48 48.11776 16.56023 613 ft 4 kts 39°
2026-04-30 20:49 48.11787 16.56036 611 ft 0 kts 39°